Location: Unspecified
(43.8044°N, 11.0278°E)
Time: 13:16:23
(UTC+02:00)

Okean 3 - Visible Passes

Search period start: 01 September 2014 00:00
Search period end: 11 September 2014 00:00
Orbit: 583 x 610 km, 82.5° (Epoch: 31 August)

Date Brightness Start Highest point End Pass type
(mag) Time Alt. Az. Time Alt. Az. Time Alt. Az.
01 Sep 5.5 03:57:03 19° ESE 03:58:42 24° E 04:02:07 10° NE visible
01 Sep 4.5 05:33:47 18° WSW 05:35:59 27° WNW 05:39:37 10° NNW visible
02 Sep 4.7 04:07:53 32° SE 04:08:56 38° E 04:12:50 10° NNE visible
02 Sep 5.0 05:44:36 14° WSW 05:46:30 18° WNW 05:49:27 10° NNW visible
03 Sep 3.8 04:18:40 55° SE 04:19:12 61° E 04:23:22 10° NNE visible
03 Sep 5.5 05:55:23 10° W 05:57:03 12° WNW 05:58:46 10° NW visible
04 Sep 3.3 04:29:25 81° WSW 04:29:31 83° W 04:33:45 10° N visible
05 Sep 6.2 03:03:24 13° ENE 03:03:24 13° ENE 03:05:02 10° NE visible
05 Sep 3.7 04:40:07 50° WNW 04:40:07 50° WNW 04:44:01 10° N visible
06 Sep 5.9 03:14:05 19° ENE 03:14:05 19° ENE 03:16:17 10° NE visible
06 Sep 4.4 04:50:48 32° WNW 04:50:48 32° WNW 04:54:08 10° N visible
07 Sep 5.5 03:24:44 25° NE 03:24:44 25° NE 03:27:05 10° NNE visible
07 Sep 5.0 05:01:26 21° WNW 05:01:26 21° WNW 05:04:04 10° NNW visible
08 Sep 5.3 03:35:21 30° NE 03:35:21 30° NE 03:37:40 10° NNE visible
08 Sep 5.5 05:12:03 14° WNW 05:12:03 14° WNW 05:13:39 10° NW visible
09 Sep 5.2 03:45:56 30° NNE 03:45:56 30° NNE 03:48:06 10° N visible
10 Sep 5.3 03:56:31 25° N 03:56:31 25° N 03:58:25 10° N visible
